Location: Newark
(14.9306°N, 3.4333°E)
Time: 16:50:11
(UTC+00:00)

N. Korean satellite - Visible Passes

Search period start: 14 October 2019 00:00
Search period end: 24 October 2019 00:00
Orbit: 455 x 508 km, 97.2° (Epoch: 14 October)

Date Brightness Start Highest point End Pass type
(mag) Time Alt. Az. Time Alt. Az. Time Alt. Az.
14 Oct 9.8 17:51:26 10° SW 17:53:53 18° W 17:56:21 10° NW visible
16 Oct 8.5 05:04:51 10° NNE 05:08:14 36° E 05:11:39 10° SSE visible
17 Oct 10.1 04:40:48 10° ENE 04:42:57 15° E 04:45:08 10° SE visible
18 Oct 9.4 17:43:17 10° SSW 17:46:06 24° W 17:48:54 10° NW visible
20 Oct 9.1 04:57:17 10° NE 05:00:28 28° E 05:03:41 10° SSE visible
21 Oct 10.4 04:33:49 10° ENE 04:35:10 12° E 04:36:31 10° ESE visible
21 Oct 10.2 18:02:00 10° SW 18:03:34 13° W 18:05:07 10° WNW visible
23 Oct 7.5 05:14:19 10° NNE 05:17:55 55° E 05:21:34 10° S visible
